This demonstration page uses our WeatherBlox Daily Observations layout. Learn more.

Left ArrowRight Arrow

34.74481, -87.66753

Hourly Observations for April 2, 2021

Temp ( °F °C ) Dew Point ( °F °C ) Humidity (%) Winds ( mph kmh ) Pressure ( in mb ) Visibility ( mi km ) Precip ( " mm )
3:53 am 03:53 Clear 38 3.3 21 -6.1 51 51 N 6 9 30.45 1031 10 16 0.00 0.00
4:53 am 04:53 Clear 37 2.8 21 -6.1 52 52 N 5 7 30.46 1031 10 16 0.00 0.00
5:53 am 05:53 Clear 37 2.8 21 -6.1 52 52 NNE 9 15 30.48 1032 10 16 0.00 0.00
6:53 am 06:53 Sunny 36 2.2 21 -6.1 55 55 NE 6 9 30.52 1033 10 16 0.00 0.00
7:53 am 07:53 Sunny 38 3.3 21 -6.1 51 51 ENE 9 15 30.52 1033 10 16 0.00 0.00
8:53 am 08:53 Sunny 40 4.4 20 -6.7 45 45 ENE 10 17 30.53 1034 10 16 0.00 0.00
9:53 am 09:53 Sunny 43 6.1 18 -7.8 37 37 NE 7 11 30.54 1034 10 16 0.00 0.00
10:53 am 10:53 Sunny 45 7.2 18 -7.8 34 34 ENE 9 15 30.54 1034 10 16 0.00 0.00
11:53 am 11:53 Sunny 48 8.9 20 -6.7 33 33 undefined N/A 30.53 1034 10 16 0.00 0.00
12:53 pm 12:53 Sunny 49 9.4 17 -8.3 28 28 VRB 5 7 30.51 1033 10 16 0.00 0.00
1:53 pm 13:53 Sunny 52 11.1 20 -6.7 28 28 N 9 15 30.48 1032 10 16 0.00 0.00
2:53 pm 14:53 Sunny 54 12.2 20 -6.7 26 26 NNE 8 13 30.45 1031 10 16 0.00 0.00
3:53 pm 15:53 Sunny 54 12.2 18 -7.8 24 24 ENE 3 6 30.43 1031 10 16 0.00 0.00
5:53 pm 17:53 Sunny 55 12.8 17 -8.3 22 22 E 7 11 30.40 1030 10 16 0.00 0.00
6:53 pm 18:53 Sunny 52 11.1 23 -5 32 32 E 5 7 30.40 1030 10 16 0.00 0.00
7:53 pm 19:53 Clear 49 9.4 24 -4.4 38 38 ENE 5 7 30.40 1030 10 16 0.00 0.00
8:53 pm 20:53 Clear 47 8.3 24 -4.4 41 41 E 3 6 30.41 1030 10 16 0.00 0.00
9:53 pm 21:53 Clear 45 7.2 28 -2.2 52 52 ENE 3 6 30.42 1030 10 16 0.00 0.00
10:53 pm 22:53 Clear 43 6.1 25 -3.9 49 49 Calm 30.42 1030 10 16 0.00 0.00
11:53 pm 23:53 Clear 40 4.4 30 -1.1 68 68 Calm 30.41 1030 10 16 0.00 0.00

Powered by AerisWeather